| time (UTC) | temp F | wind direction | speed MPH | gust MPH | rain 1hr in | rain 24hr in | rain mn in | humidity % | barometer mb |
| 20260505235529 | 55 | 304 | 14.0 | 22.0 | 0.00 | 0.00 | 0.00 | 51 | 863.4 |
| 20260505222242 | 55 | 294 | 11.0 | 24.0 | 0.00 | 0.00 | 0.00 | 52 | 863.6 |
| 20260505211607 | 57 | 20 | 9.0 | 20.0 | 0.00 | 0.00 | 0.00 | 37 | 863.7 |
| 20260505200441 | 56 | 19 | 12.0 | 19.0 | 0.00 | 0.00 | 0.00 | 41 | 863.8 |
| 20260505193204 | 57 | 34 | 7.0 | 12.0 | 0.00 | 0.00 | 0.00 | 43 | 863.9 |
| 20260505183034 | 56 | 36 | 7.0 | 17.0 | 0.00 | 0.00 | 0.00 | 46 | 864.0 |
| 20260505172917 | 54 | 53 | 11.0 | 20.0 | 0.00 | 0.00 | 0.00 | 44 | 863.4 |
| 20260505162826 | 54 | 5 | 9.0 | 19.0 | 0.00 | 0.00 | 0.00 | 44 | 863.1 |
| 20260505152524 | 53 | 338 | 3.0 | 12.0 | 0.00 | 0.00 | 0.00 | 43 | 863.0 |
| 20260505130150 | 49 | 49 | 5.0 | 9.0 | 0.00 | 0.00 | 0.00 | 44 | 862.1 |
| 20260505120137 | 49 | 59 | 7.0 | 11.0 | 0.00 | 0.00 | 0.00 | 47 | 861.7 |
| 20260505110115 | 49 | 11 | 5.0 | 20.0 | 0.00 | 0.00 | 0.00 | 46 | 861.5 |
| 20260505100139 | 50 | 144 | 4.0 | 22.0 | 0.00 | 0.00 | 0.00 | 45 | 861.2 |
| 20260505090113 | 49 | 258 | 6.0 | 17.0 | 0.00 | 0.00 | 0.00 | 50 | 861.1 |
| 20260505080115 | 50 | 42 | 13.0 | 27.0 | 0.00 | 0.00 | 0.00 | 49 | 861.2 |
| 20260505070109 | 50 | 28 | 9.0 | 21.0 | 0.00 | 0.00 | 0.00 | 48 | 861.2 |
| 20260505060142 | 50 | 34 | 21.0 | 35.0 | 0.00 | 0.00 | 0.00 | 47 | 860.2 |
| 20260505050113 | 50 | 52 | 17.0 | 24.0 | 0.00 | 0.00 | 0.00 | 52 | 860.8 |
| 20260505040521 | 52 | 9 | 16.0 | 21.0 | 0.00 | 0.00 | 0.00 | 52 | 861.0 |
| 20260505030136 | 54 | 15 | 11.0 | 17.0 | 0.00 | 0.00 | 0.00 | 41 | 860.6 |
| 20260505020434 | 59 | 30 | 8.0 | 14.0 | 0.00 | 0.00 | 0.00 | 38 | 860.7 |
| 20260505012630 | 59 | 302 | 9.0 | 20.0 | 0.00 | 0.00 | 0.00 | 42 | 860.8 |